Location: Mahannah Oil Field
(37.4664°N, 96.6003°W)
Time: 14:44:49
(UTC+00:00)

deb Explorer IX - Visible Passes

Search period start: 25 January 2021 00:00
Search period end: 04 February 2021 00:00
Orbit: 536 x 1104 km, 38.8° (Epoch: 25 January)

Date Brightness Start Highest point End Pass type
(mag) Time Alt. Az. Time Alt. Az. Time Alt. Az.
25 Jan ? 00:53:11 10° WSW 00:59:41 88° NNW 01:03:02 26° ENE visible
25 Jan ? 02:41:01 10° W 02:44:19 33° WNW 02:44:19 33° WNW visible
26 Jan ? 00:29:17 10° WSW 00:35:58 88° NNW 00:40:45 15° E visible
26 Jan ? 02:17:09 10° W 02:22:00 56° WNW 02:22:00 56° WNW visible
27 Jan ? 00:05:24 10° WSW 00:12:13 88° NNW 00:18:05 10° E visible
27 Jan ? 01:53:16 10° W 01:59:34 81° N 01:59:43 80° NE visible
28 Jan ? 01:29:22 10° W 01:35:51 82° N 01:37:26 50° E visible
28 Jan ? 03:17:08 10° W 03:18:42 18° W 03:18:42 18° W visible
29 Jan ? 01:05:29 10° W 01:12:07 82° N 01:15:12 29° E visible
29 Jan ? 02:53:15 10° W 02:56:28 30° W 02:56:28 30° W visible
30 Jan ? 00:41:34 10° W 00:48:22 82° N 00:53:00 17° E visible
30 Jan ? 02:29:21 10° W 02:34:17 47° WSW 02:34:17 47° WSW visible
31 Jan ? 00:17:39 10° W 00:24:36 83° N 00:30:35 10° E visible
31 Jan ? 02:05:27 10° W 02:11:42 55° SSW 02:12:10 54° S visible
01 Feb ? 01:41:32 10° WNW 01:47:57 56° SSW 01:50:08 36° SSE visible
01 Feb ? 03:30:34 10° W 03:31:25 12° WSW 03:31:25 12° WSW visible
02 Feb ? 01:17:37 10° WNW 01:24:11 57° SSW 01:28:11 20° SE visible
02 Feb ? 03:06:35 10° W 03:09:29 16° SW 03:09:29 16° SW visible
03 Feb ? 00:53:41 10° WNW 01:00:25 57° SSW 01:06:14 10° SE visible
03 Feb ? 02:42:37 10° W 02:46:37 18° SW 02:47:41 17° SSW visible
